When you browse on this site, cookies collect data to enhance your experience and personalize the content and advertising you see.
Visit our Privacy Policy to learn more. By continuing to use the site, you agree to this use of cookies and data.
  • In Spain
  • List of Countries
  • For 7 days
  • Water Temperature
  • Weather Map
  • Weather Widgets
  • user-avatar
    Login

    Hourly Weather Bologna

    Today, 3 June, Wednesday

    Time Temperature Precipitation Wind Pressure Humidity
    00:00 +17°C° 0.6 mm 3 mps 751 mmHg 83%
    01:00 +16°C° 0 mm 3 mps 751 mmHg 82%
    02:00 +16°C° 0 mm 2 mps 750 mmHg 82%
    03:00 +15°C° 0 mm 2 mps 750 mmHg 81%
    04:00 +15°C° 0 mm 2 mps 750 mmHg 81%
    05:00 +16°C° 0 mm 2 mps 750 mmHg 79%
    06:00 +18°C° 0 mm 1 mps 750 mmHg 76%
    07:00 +20°C° 0 mm 1 mps 750 mmHg 73%
    08:00 +21°C° 0 mm 1 mps 750 mmHg 67%
    09:00 +23°C° 0 mm 1 mps 750 mmHg 60%
    10:00 +25°C° 0 mm 1 mps 750 mmHg 54%
    11:00 +26°C° 0.1 mm 1 mps 750 mmHg 53%
    12:00 +27°C° 0.1 mm 2 mps 749 mmHg 51%
    13:00 +28°C° 0.1 mm 2 mps 749 mmHg 49%
    14:00 +28°C° 0.1 mm 2 mps 749 mmHg 50%
    15:00 +28°C° 0.1 mm 3 mps 748 mmHg 51%
    16:00 +28°C° 0.1 mm 3 mps 748 mmHg 51%
    17:00 +26°C° 0 mm 4 mps 748 mmHg 55%
    18:00 +23°C° 0 mm 4 mps 747 mmHg 59%
    19:00 +22°C° 0 mm 4 mps 747 mmHg 63%
    20:00 +21°C° 0 mm 4 mps 747 mmHg 63%
    21:00 +20°C° 0 mm 4 mps 747 mmHg 62%
    22:00 +19°C° 0 mm 4 mps 747 mmHg 61%
    23:00 +18°C° 0 mm 4 mps 747 mmHg 65%

    Tomorrow, 4 June, Thursday

    Time Temperature Precipitation Wind Pressure Humidity
    00:00 +17°C° 0 mm 4 mps 747 mmHg 68%
    01:00 +17°C° 0 mm 3 mps 747 mmHg 72%
    02:00 +16°C° 0 mm 3 mps 746 mmHg 75%
    03:00 +16°C° 0 mm 3 mps 746 mmHg 77%
    04:00 +16°C° 0 mm 3 mps 746 mmHg 80%
    05:00 +17°C° 0 mm 3 mps 746 mmHg 78%
    06:00 +18°C° 0 mm 3 mps 745 mmHg 76%
    07:00 +19°C° 0 mm 3 mps 745 mmHg 74%
    08:00 +20°C° 0 mm 3 mps 745 mmHg 74%
    09:00 +20°C° 0 mm 4 mps 745 mmHg 75%
    10:00 +20°C° 0 mm 4 mps 745 mmHg 75%
    11:00 +20°C° 0.3 mm 4 mps 745 mmHg 75%
    12:00 +21°C° 0.3 mm 4 mps 745 mmHg 75%
    13:00 +21°C° 0.3 mm 4 mps 744 mmHg 75%
    14:00 +21°C° 0.1 mm 4 mps 744 mmHg 74%
    15:00 +22°C° 0.1 mm 4 mps 743 mmHg 72%
    16:00 +22°C° 0.1 mm 4 mps 743 mmHg 70%
    17:00 +21°C° 0.1 mm 4 mps 742 mmHg 73%
    18:00 +21°C° 0.1 mm 4 mps 741 mmHg 77%
    19:00 +20°C° 0.1 mm 4 mps 740 mmHg 80%
    20:00 +20°C° 1.1 mm 4 mps 740 mmHg 83%
    21:00 +19°C° 1.1 mm 4 mps 740 mmHg 87%
    22:00 +19°C° 1.1 mm 3 mps 740 mmHg 90%
    23:00 +18°C° 0.7 mm 3 mps 739 mmHg 89%

    Day after tomorrow, 5 June, Friday

    Time Temperature Precipitation Wind Pressure Humidity
    00:00 +18°C° 0.7 mm 3 mps 739 mmHg 89%
    01:00 +17°C° 0.7 mm 3 mps 739 mmHg 89%
    02:00 +17°C° 0 mm 3 mps 739 mmHg 88%
    03:00 +16°C° 0 mm 3 mps 739 mmHg 87%
    04:00 +16°C° 0 mm 3 mps 739 mmHg 86%
    05:00 +17°C° 0 mm 3 mps 739 mmHg 85%
    06:00 +17°C° 0 mm 3 mps 739 mmHg 84%
    07:00 +18°C° 0 mm 3 mps 739 mmHg 84%
    08:00 +19°C° 0.8 mm 3 mps 740 mmHg 80%
    09:00 +19°C° 0.8 mm 3 mps 740 mmHg 77%
    10:00 +20°C° 0.8 mm 3 mps 740 mmHg 74%
    11:00 +21°C° 0.5 mm 3 mps 740 mmHg 70%
    12:00 +22°C° 0.5 mm 3 mps 741 mmHg 66%
    13:00 +24°C° 0.5 mm 3 mps 741 mmHg 63%
    14:00 +24°C° 0.2 mm 3 mps 741 mmHg 62%
    15:00 +24°C° 0.2 mm 3 mps 742 mmHg 61%
    16:00 +24°C° 0.2 mm 3 mps 742 mmHg 60%
    17:00 +22°C° 0 mm 3 mps 743 mmHg 66%
    18:00 +21°C° 0 mm 3 mps 743 mmHg 73%
    19:00 +20°C° 0 mm 2 mps 744 mmHg 79%
    20:00 +19°C° 0 mm 2 mps 744 mmHg 82%
    21:00 +17°C° 0 mm 2 mps 745 mmHg 85%
    22:00 +16°C° 0 mm 2 mps 746 mmHg 88%
    23:00 +16°C° 0 mm 2 mps 746 mmHg 89%

    6 June, Saturday

    Time Temperature Precipitation Wind Pressure Humidity
    00:00 +16°C° 0 mm 2 mps 747 mmHg 89%
    01:00 +15°C° 0 mm 2 mps 747 mmHg 90%
    02:00 +15°C° 0 mm 2 mps 747 mmHg 90%
    03:00 +15°C° 0 mm 1 mps 747 mmHg 90%
    04:00 +15°C° 0 mm 1 mps 748 mmHg 91%
    05:00 +16°C° 0 mm 1 mps 748 mmHg 86%
    06:00 +18°C° 0 mm 1 mps 748 mmHg 81%
    07:00 +20°C° 0 mm 1 mps 749 mmHg 76%
    08:00 +21°C° 0 mm 1 mps 749 mmHg 71%
    09:00 +23°C° 0 mm 1 mps 750 mmHg 65%
    10:00 +24°C° 0 mm 1 mps 750 mmHg 60%
    11:00 +25°C° 0.2 mm 2 mps 750 mmHg 58%
    12:00 +26°C° 0.2 mm 2 mps 750 mmHg 56%
    13:00 +26°C° 0.2 mm 2 mps 749 mmHg 54%
    14:00 +26°C° 0.1 mm 2 mps 749 mmHg 54%
    15:00 +26°C° 0.1 mm 2 mps 749 mmHg 54%
    16:00 +26°C° 0.1 mm 3 mps 749 mmHg 55%
    17:00 +25°C° 0.1 mm 3 mps 749 mmHg 61%
    18:00 +22°C° 0.1 mm 3 mps 749 mmHg 67%
    19:00 +21°C° 0.1 mm 3 mps 749 mmHg 73%
    20:00 +20°C° 0 mm 3 mps 749 mmHg 76%
    21:00 +19°C° 0 mm 3 mps 749 mmHg 79%
    22:00 +17°C° 0 mm 4 mps 750 mmHg 82%
    23:00 +17°C° 0 mm 3 mps 750 mmHg 83%

    7 June, Sunday

    Time Temperature Precipitation Wind Pressure Humidity
    00:00 +17°C° 0 mm 3 mps 749 mmHg 83%
    01:00 +17°C° 0 mm 3 mps 749 mmHg 84%
    02:00 +17°C° 0 mm 3 mps 749 mmHg 84%
    03:00 +17°C° 0 mm 2 mps 749 mmHg 84%
    04:00 +17°C° 0 mm 2 mps 749 mmHg 84%
    05:00 +18°C° 0 mm 3 mps 749 mmHg 81%
    06:00 +19°C° 0 mm 3 mps 749 mmHg 78%
    07:00 +20°C° 0 mm 3 mps 749 mmHg 75%
    08:00 +22°C° 0 mm 4 mps 749 mmHg 69%
    09:00 +23°C° 0 mm 4 mps 749 mmHg 64%
    10:00 +25°C° 0 mm 5 mps 749 mmHg 58%
    11:00 +26°C° 0 mm 5 mps 749 mmHg 56%
    12:00 +27°C° 0 mm 5 mps 749 mmHg 55%
    13:00 +27°C° 0 mm 4 mps 749 mmHg 53%
    14:00 +27°C° 0 mm 4 mps 748 mmHg 54%
    15:00 +27°C° 0 mm 4 mps 748 mmHg 55%
    16:00 +27°C° 0 mm 4 mps 748 mmHg 56%
    17:00 +26°C° 0 mm 4 mps 748 mmHg 60%
    18:00 +23°C° 0 mm 4 mps 748 mmHg 65%
    19:00 +22°C° 0 mm 4 mps 748 mmHg 69%
    20:00 +21°C° 0.1 mm 3 mps 748 mmHg 71%
    21:00 +20°C° 0.1 mm 3 mps 748 mmHg 73%
    22:00 +19°C° 0.1 mm 3 mps 748 mmHg 76%
    23:00 +18°C° 0 mm 3 mps 748 mmHg 77%

    8 June, Monday

    Time Temperature Precipitation Wind Pressure Humidity
    00:00 +18°C° 0 mm 3 mps 748 mmHg 79%
    01:00 +18°C° 0 mm 3 mps 748 mmHg 80%
    02:00 +17°C° 0 mm 3 mps 748 mmHg 81%
    03:00 +17°C° 0 mm 3 mps 748 mmHg 82%
    04:00 +17°C° 0 mm 2 mps 748 mmHg 83%
    05:00 +18°C° 0 mm 2 mps 748 mmHg 80%
    06:00 +19°C° 0 mm 2 mps 748 mmHg 76%
    07:00 +21°C° 0 mm 2 mps 748 mmHg 73%
    08:00 +22°C° 0 mm 3 mps 748 mmHg 66%
    09:00 +24°C° 0 mm 3 mps 748 mmHg 60%
    10:00 +26°C° 0 mm 4 mps 749 mmHg 53%
    11:00 +26°C° 0 mm 4 mps 749 mmHg 49%
    12:00 +27°C° 0 mm 5 mps 749 mmHg 45%
    13:00 +28°C° 0 mm 6 mps 749 mmHg 41%
    14:00 +27°C° 0 mm 5 mps 749 mmHg 40%
    15:00 +27°C° 0 mm 5 mps 749 mmHg 39%
    16:00 +27°C° 0 mm 5 mps 749 mmHg 38%
    17:00 +25°C° 0 mm 4 mps 749 mmHg 44%
    18:00 +24°C° 0 mm 3 mps 749 mmHg 50%
    19:00 +21°C° 0 mm 3 mps 749 mmHg 56%
    20:00 +19°C° 0 mm 3 mps 750 mmHg 59%
    21:00 +17°C° 0 mm 3 mps 750 mmHg 62%
    22:00 +16°C° 0 mm 3 mps 751 mmHg 66%
    23:00 +14°C° 0 mm 3 mps 751 mmHg 68%
    Show more